sat.trackr.live / text

‹ back to catalog

STARLINK-3800

NORAD 52379 · 2022-045BA

PAYLOAD ACTIVE UNKNOWN

§ Identity

Operator
Country
US
Launch date
2022-04-29
Launch site
AFETR
Launch vehicle
Mass (kg)
RCS (m²)

Purposes: comms

External: N2YO · Heavens-Above · Gunter

§ Orbital elements

Epoch: 2026-09-19T23:52:25.978368Z

Period
93.88 min
Inclination
53.1603°
Eccentricity
0.0002950
Mean motion
15.33832326 rev/d
Perigee alt
462.4 km
Apogee alt
466.4 km
Semi-major
6,842.5 km
B*
1.0684e-3
RAAN
25.3854°
Arg perigee
337.7197°
Mean anomaly
22.3677°
Rev number
24,541

§ Raw data

STARLINK-38001 52379U 22045BA  26262.99474512  .00035249  00000+0  10684-2 0  99912 52379  53.1603  25.3854 0002950 337.7197  22.3677 15.33832326245415

JSON: /api/v1/satellites/52379 · /tle

For live sub-satellite position, see the globe view (requires WebGL).

§ Visibility from observer

Set your observer location to see the next 7 days of passes ≥ 10°. The values pass through the URL so the page stays shareable.

No JS? Fill the form by hand. The geolocation button needs JavaScript.